Location: Milevsko
(49.4500°N, 14.3670°E)
Time: 20:41:01
(UTC+02:00)

ISS - Pass Details

Date: 17 July 2018
Orbit: 402 x 408 km, 51.6° (Epoch: 17 July)

Event Time Altitude Azimuth Distance (km) Brightness Sun altitude
Exits shadow 00:08:35 15° 86° (E) 1,187 -1.6 -18.0°
Drops below altitude 10° 00:09:21 10° 80° (E) 1,468 -1.1 -18.1°
Sets 00:11:31 0° 72° (ENE) 2,332 0.1 -18.2°
